This is the latest recevied weather packets stored in our database for station/object KO4LCK. If no packets are shown the sender has not sent any weather packets the latest 10 day(s).
| Time | Temp. | Humidity | Pressure | Rain* | Wind** | Luminosity | Snow |
|---|---|---|---|---|---|---|---|
| 1778022116 | 24.44° C | 42% | 1013.4 hPa | 0 mm | - | 35 W/m² | - |
| 1778021813 | 25° C | 42% | 1013.4 hPa | 0 mm | - | 36 W/m² | - |
| 1778021509 | 25° C | 41% | 1013.5 hPa | 0 mm | - | 46 W/m² | - |
| 1778021205 | 25° C | 41% | 1013.6 hPa | 0 mm | - | 94 W/m² | - |
| 1778020904 | 25° C | 41% | 1013.5 hPa | 0 mm | - | 96 W/m² | - |
| 1778020601 | 25° C | 40% | 1013.2 hPa | 0 mm | - | 165 W/m² | - |
| 1778020296 | 25° C | 39% | 1013.3 hPa | 0 mm | - | 116 W/m² | - |
| 1778019992 | 25.56° C | 38% | 1013.3 hPa | 0 mm | - | 102 W/m² | - |
| 1778019689 | 26.11° C | 38% | 1013.3 hPa | 0 mm | - | 87 W/m² | - |
| 1778019386 | 26.11° C | 37% | 1013.2 hPa | 0 mm | - | 98 W/m² | - |
| 1778019082 | 26.11° C | 39% | 1013.2 hPa | 0 mm | - | 278 W/m² | - |
| 1778018780 | 25.56° C | 39% | 1013.2 hPa | 0 mm | - | 334 W/m² | - |
| 1778018477 | 25° C | 40% | 1013.1 hPa | 0 mm | - | 277 W/m² | - |
| 1778018175 | 25° C | 40% | 1013.1 hPa | 0 mm | - | 182 W/m² | - |
| 1778017873 | 25° C | 40% | 1013.3 hPa | 0 mm | - | 67 W/m² | - |
| 1778017571 | 25° C | 39% | 1013.3 hPa | 0 mm | - | 81 W/m² | - |
| 1778017268 | 25.56° C | 38% | 1013.4 hPa | 0 mm | - | 87 W/m² | - |
| 1778016965 | 25.56° C | 38% | 1013.4 hPa | 0 mm | - | 91 W/m² | - |
| 1778016662 | 25.56° C | 39% | 1013.5 hPa | 0 mm | - | 93 W/m² | - |
| 1778016358 | 25.56° C | 37% | 1013.4 hPa | 0 mm | - | 100 W/m² | - |
| 1778016056 | 25.56° C | 37% | 1013.2 hPa | 0 mm | - | 124 W/m² | - |
| 1778015752 | 25.56° C | 36% | 1013.3 hPa | 0 mm | - | 231 W/m² | - |
| 1778015449 | 25.56° C | 36% | 1013.2 hPa | 0 mm | - | 187 W/m² | - |
| 1778015146 | 25.56° C | 36% | 1013.4 hPa | 0 mm | - | 144 W/m² | - |
| 1778014843 | 26.11° C | 35% | 1013.3 hPa | 0 mm | - | 186 W/m² | - |
* Rain latest hour (hover to see other rain measurements)
** Current wind speed in m/s (hover to see current wind gust speed)